COSMOS 249 DEB, 3584

Orbit data source: Space-Track

COSMOS 249 DEB, 3584 is space debris in LEO originally from a launch on Sun, 20 Oct 1968 UTC launched from the Tyuratam Missile And Space Complex (TTMTR). Debris objects in space refer to the collection of defunct objects orbiting the Earth. Examples of debris include non-operational satellites, rocket bodies, and fragments generated from explosions, collisions, or faulty payload assembly.

Loading next visibility...
Identifier
3584, 1968-091S
Orbit
LEO
Country
Flag of CISCIS
Related business
Manufacturer
Unknown
Mission
Spacecraft
Bus & Motor
Unknown
Mass
Unknown
Launch date (UTC)
1968-10-20 (57 years ago)
Launch vehicle
Unknown
Launch site
Tyuratam Missile And Space Complex (TTMTR)
Object type
Payload
Rocket body
Debris
Shape & HBR
Unknown
Radar Cross Section
Small (<0.1 m²)

Expand to show TLE details & history
Last TLE update: 15 hours ago

TLE from 15 hours ago
0 COSMOS 249 DEB
1 03584U 68091S   25259.11966866  .00015160  00000-0  16203-2 0  9997
2 03584  62.2932 141.9634 0331081 141.5413 220.9768 14.56272213822840
Epoch: 2025-09-16T02:52Z
TLE epoch observation values (Epoch: 2025-09-16T02:52:19.372Z)
Latitude
0.00006°
Longitude
103.56817°
Altitude
887.29 km
Speed
7.314 km/s
True Right ascension
09h 27m 51s
True Declination
0° 00' 00"
Sunlit
Object was in daylight at epoch
Visualization orbit readout
Latitude
Unknown
Longitude
Unknown
Altitude
Unknown
Speed
Unknown
Apparent Right ascension
Unknown
Apparent Declination
Unknown
Sunlit
N/A
Visualization observer readout
Local Sidereal Time
10:14:23
Azimuth
Unknown
Elevation
Unknown
Doppler factor
Unknown
Orbital elements
Apogee altitude
938.627 km
Perigee altitude
469.665 km
Semi-major axis
7,082.283 km
Eccentricity
0.03311
Inclination
62.2932°
RAAN
141.9634°
Arg. of periapsis
141.5413°
True anomaly
218.56511°
Mean anomaly
220.9768°
Eccentric anomaly
219.76347°
Mean motion
3.64152 °/min
Orbital period
98.86 mins
BSTAR
0.0016203
Loading maneuver chart data...
Computing Atmospheric mass density...

Documentation

Showing up to 5 results
|